This is the latest recevied weather packets stored in our database for station/object IR9AK-10. If no packets are shown the sender has not sent any weather packets the latest 10 day(s).
| Time | Temp. | Humidity | Pressure | Rain* | Wind** | Luminosity | Snow |
|---|---|---|---|---|---|---|---|
| 1787916671 | 45.56° C | 33% | 1061.8 hPa | - | - | - | - |
| 1787916071 | 45.56° C | 32% | 1061.9 hPa | - | - | - | - |
| 1787915472 | 45.56° C | 29% | 1061.8 hPa | - | - | - | - |
| 1787914873 | 45.56° C | 28% | 1061.9 hPa | - | - | - | - |
| 1787914273 | 45° C | 26% | 1061.9 hPa | - | - | - | - |
| 1787913673 | 45° C | 26% | 1061.9 hPa | - | - | - | - |
| 1787913074 | 45.56° C | 29% | 1061.8 hPa | - | - | - | - |
| 1787912475 | 45.56° C | 10% | - | - | - | - | - |
| 1787911887 | 46.11° C | 23% | 1061.8 hPa | - | - | - | - |
| 1787911278 | 46.11° C | 22% | 1061.8 hPa | - | - | - | - |
| 1787910678 | 46.11° C | 19% | 1061.9 hPa | - | - | - | - |
| 1787910079 | 45.56° C | 18% | 1062 hPa | - | - | - | - |
| 1787909479 | 45.56° C | 19% | 1062.1 hPa | - | - | - | - |
| 1787908881 | 45° C | 20% | 1062.3 hPa | - | - | - | - |
| 1787908281 | 45° C | 21% | 1062.3 hPa | - | - | - | - |
| 1787907682 | 45° C | 24% | 1062.3 hPa | - | - | - | - |
| 1787907083 | 44.44° C | 24% | 1062.3 hPa | - | - | - | - |
| 1787906484 | 44.44° C | 25% | 1062.3 hPa | - | - | - | - |
| 1787905885 | 44.44° C | 27% | 1062.2 hPa | - | - | - | - |
| 1787905285 | 45.56° C | 27% | 1062 hPa | - | - | - | - |
| 1787904686 | 44.44° C | 22% | 1061.8 hPa | - | - | - | - |
| 1787904087 | 44.44° C | 22% | 1061.8 hPa | - | - | - | - |
| 1787903489 | 44.44° C | 22% | 1061.9 hPa | - | - | - | - |
| 1787902889 | 44.44° C | 22% | 1061.9 hPa | - | - | - | - |
| 1787902290 | 43.89° C | 22% | 1061.9 hPa | - | - | - | - |
* Rain since midnight (hover to see other rain measurements)
** Current wind speed in m/s (hover to see current wind gust speed)